GW0019 Weather Reports


time (UTC)temp
C
wind
direction
speed
KPH
gust
KPH
rain 1hr
cm
rain 24hr
cm
rain mn
cm
humidity
%
barometer
mb
20260901190428 35 181 8.0 14.5 0.00 0.00 0.00 77 1020.2
20260901185926 34 266 3.2 3.2 0.00 0.00 0.00 77 1020.4
20260901185426 33 237 4.8 12.9 0.00 0.00 0.00 77 1020.6
20260901184920 35 198 3.2 17.7 0.00 0.00 0.00 77 1020.5
20260901184416 34 213 8.0 16.1 0.00 0.00 0.00 77 1020.6
20260901183911 33 154 4.8 4.8 0.00 0.00 0.00 77 1020.3
20260901183410 33 278 1.6 14.5 0.00 0.00 0.00 77 1020.6
20260901182907 33 118 4.8 8.0 0.00 0.00 0.00 77 1020.6
20260901182401 33 118 4.8 8.0 0.00 0.00 0.00 77 1020.8
20260901181856 34 162 4.8 9.7 0.00 0.00 0.00 77 1020.7
20260901181351 34 140 8.0 9.7 0.00 0.00 0.00 77 1020.8
20260901180850 34 140 8.0 12.9 0.00 0.00 0.00 77 1021.1
20260901180349 34 146 3.2 12.9 0.00 0.00 0.00 77 1021.1
20260901175848 33 194 11.3 12.9 0.00 0.00 0.00 77 1021.0
20260901175343 33 194 11.3 12.9 0.00 0.00 0.00 77 1021.3
20260901174838 33 204 6.4 11.3 0.00 0.00 0.00 76 1021.4
20260901174334 33 204 6.4 11.3 0.00 0.00 0.00 76 1021.2
20260901173829 33 178 6.4 14.5 0.00 0.00 0.00 77 1021.3
20260901173324 33 188 6.4 11.3 0.00 0.00 0.00 77 1021.5
20260901172821 33 154 4.8 14.5 0.00 0.00 0.00 77 1021.7
20260901172320 33 254 6.4 9.7 0.00 0.00 0.00 77 1021.6
20260901171818 33 221 9.7 20.9 0.00 0.00 0.00 77 1021.6
20260901171317 33 263 9.7 20.9 0.00 0.00 0.00 76 1021.7
20260901170816 32 251 9.7 11.3 0.00 0.00 0.00 77 1021.8
20260901170316 32 225 8.0 17.7 0.00 0.00 0.00 76 1021.6
20260901165815 32 223 6.4 16.1 0.00 0.00 0.00 76 1022.0
20260901165310 32 201 16.1 17.7 0.00 0.00 0.00 76 1021.9
20260901164807 33 294 0.0 8.0 0.00 0.00 0.00 77 1021.9
20260901164302 32 264 11.3 19.3 0.00 0.00 0.00 76 1021.9
20260901163756 32 249 16.1 19.3 0.00 0.00 0.00 76 1022.0
20260901163251 32 221 6.4 17.7 0.00 0.00 0.00 76 1022.2
20260901162746 32 206 1.6 16.1 0.00 0.00 0.00 76 1022.0
20260901162245 31 277 14.5 24.1 0.00 0.00 0.00 76 1022.2
20260901161744 32 257 16.1 22.5 0.00 0.00 0.00 76 1022.2
20260901161239 32 226 11.3 19.3 0.00 0.00 0.00 76 1022.3
20260901160735 32 195 9.7 14.5 0.00 0.00 0.00 76 1022.3
20260901160231 32 180 1.6 19.3 0.00 0.00 0.00 76 1022.0
20260901155729 32 74 3.2 17.7 0.00 0.00 0.00 76 1022.2
20260901155224 32 205 9.7 20.9 0.00 0.00 0.00 76 1022.3
20260901154720 31 215 6.4 16.1 0.00 0.00 0.00 76 1022.3
20260901154215 31 236 4.8 14.5 0.00 0.00 0.00 76 1022.3
20260901153710 31 251 8.0 24.1 0.00 0.00 0.00 76 1022.3
20260901153203 31 220 11.3 14.5 0.00 0.00 0.00 76 1022.2
20260901152658 31 235 8.0 17.7 0.00 0.00 0.00 76 1022.4
20260901152156 31 225 0.0 17.7 0.00 0.00 0.00 76 1022.3
20260901151653 31 165 1.6 20.9 0.00 0.00 0.00 76 1022.3
20260901151152 31 204 3.2 24.1 0.00 0.00 0.00 76 1022.0
20260901150651 31 228 9.7 19.3 0.00 0.00 0.00 76 1022.4
20260901150150 31 255 8.0 9.7 0.00 0.00 0.00 76 1022.2
20260901145647 31 247 4.8 11.3 0.00 0.00 0.00 76 1022.3
20260901145142 30 256 8.0 14.5 0.00 0.00 0.00 76 1022.5
20260901144638 31 218 6.4 11.3 0.00 0.00 0.00 76 1022.3
20260901144132 30 254 6.4 16.1 0.00 0.00 0.00 76 1022.2
20260901143628 30 280 4.8 12.9 0.00 0.00 0.00 76 1022.4
20260901143124 30 194 3.2 12.9 0.00 0.00 0.00 76 1022.3
20260901142620 30 185 3.2 12.9 0.00 0.00 0.00 76 1022.3
20260901142119 30 162 3.2 6.4 0.00 0.00 0.00 76 1022.4
20260901141614 29 195 0.0 12.9 0.00 0.00 0.00 76 1022.6
20260901141109 29 288 4.8 11.3 0.00 0.00 0.00 76 1022.2
20260901140608 28 197 8.0 14.5 0.00 0.00 0.00 76 1022.4
20260901140106 28 204 3.2 14.5 0.00 0.00 0.00 76 1022.4
20260901135601 28 199 4.8 6.4 0.00 0.00 0.00 76 1022.2
20260901135056 28 151 1.6 9.7 0.00 0.00 0.00 75 1022.3
20260901134552 28 255 0.0 6.4 0.00 0.00 0.00 75 1022.6
20260901134047 28 157 1.6 9.7 0.00 0.00 0.00 75 1022.5
20260901133546 27 206 0.0 6.4 0.00 0.00 0.00 75 1022.4
20260901133045 27 209 8.0 8.0 0.00 0.00 0.00 75 1022.3
20260901132544 27 225 3.2 4.8 0.00 0.00 0.00 75 1022.4
20260901132038 27 212 4.8 8.0 0.00 0.00 0.00 75 1022.2
20260901131533 26 151 3.2 6.4 0.00 0.00 0.00 75 1022.3
20260901131028 26 194 4.8 8.0 0.00 0.00 0.00 75 1022.4
20260901130528 26 279 3.2 6.4 0.00 0.00 0.00 75 1022.3
20260901130027 26 213 3.2 6.4 0.00 0.00 0.00 75 1022.2
20260901125525 26 213 4.8 6.4 0.00 0.00 0.00 75 1022.3
20260901125021 25 201 3.2 4.8 0.00 0.00 0.00 75 1021.9
20260901124516 25 206 4.8 4.8 0.00 0.00 0.00 75 1022.2
20260901124015 25 215 1.6 3.2 0.00 0.00 0.00 75 1022.2
20260901123510 25 203 1.6 3.2 0.00 0.00 0.00 75 1022.0
20260901123009 23 192 0.0 0.0 0.00 0.00 0.00 74 1022.0
20260901122503 23 192 0.0 0.0 0.00 0.00 0.00 74 1022.0
20260901122002 23 192 0.0 0.0 0.00 0.00 0.00 74 1022.0
20260901121457 23 192 0.0 0.0 0.00 0.00 0.00 74 1021.7
20260901120947 23 192 0.0 0.0 0.00 0.00 0.00 74 1021.8
20260901120446 23 192 0.0 0.0 0.00 0.00 0.00 74 1021.7
20260901115942 23 192 0.0 0.0 0.00 0.00 0.00 74 1022.0
20260901115443 23 192 0.0 0.0 0.00 0.00 0.00 74 1021.8
20260901114940 23 192 0.0 0.0 0.00 0.00 0.00 74 1021.8
20260901114435 23 206 3.2 4.8 0.00 0.00 0.00 74 1021.6
20260901113933 23 206 3.2 4.8 0.00 0.00 0.00 74 1021.6
20260901113433 23 206 3.2 4.8 0.00 0.00 0.00 74 1021.6
20260901112928 23 206 3.2 4.8 0.00 0.00 0.00 74 1021.5
20260901112423 -17 0.0 0.0 0.00 0.00 0.00 1021.3
20260901111918 23 240 0.0 0.0 0.00 0.00 0.00 74 1021.4
20260901111416 23 240 0.0 0.0 0.00 0.00 0.00 74 1021.2
20260901110915 23 240 0.0 0.0 0.00 0.00 0.00 74 1021.3
20260901110411 23 240 0.0 0.0 0.00 0.00 0.00 74 1021.1
20260901105907 23 240 0.0 0.0 0.00 0.00 0.00 74 1021.2
20260901105402 23 240 0.0 0.0 0.00 0.00 0.00 74 1021.1
20260901104858 23 240 0.0 0.0 0.00 0.00 0.00 74 1021.1
20260901104353 23 240 0.0 0.0 0.00 0.00 0.00 74 1021.0
20260901103849 23 240 0.0 0.0 0.00 0.00 0.00 74 1021.0
20260901103348 23 240 0.0 0.0 0.00 0.00 0.00 74 1021.1
20260901102843 23 240 0.0 0.0 0.00 0.00 0.00 74 1021.2
20260901102337 23 240 0.0 0.0 0.00 0.00 0.00 74 1021.0
20260901101833 23 246 3.2 3.2 0.00 0.00 0.00 74 1020.8
20260901101333 23 246 3.2 3.2 0.00 0.00 0.00 74 1021.0
20260901100827 23 246 3.2 3.2 0.00 0.00 0.00 74 1021.0
20260901100322 23 246 3.2 3.2 0.00 0.00 0.00 74 1021.0
20260901095821 23 246 3.2 3.2 0.00 0.00 0.00 74 1021.1
20260901095318 23 240 0.0 0.0 0.00 0.00 0.00 74 1020.9
20260901094813 23 240 0.0 0.0 0.00 0.00 0.00 74 1020.8
20260901094308 23 240 0.0 0.0 0.00 0.00 0.00 74 1020.9
20260901093803 23 240 0.0 0.0 0.00 0.00 0.00 74 1020.8
20260901093301 23 240 0.0 0.0 0.00 0.00 0.00 74 1020.9
20260901092757 23 240 0.0 0.0 0.00 0.00 0.00 74 1020.8
20260901092254 23 240 0.0 0.0 0.00 0.00 0.00 74 1020.9
20260901091748 23 194 0.0 0.0 0.00 0.00 0.00 74 1020.8
20260901091243 23 216 0.0 0.0 0.00 0.00 0.00 74 1020.9
20260901090738 23 227 4.8 4.8 0.00 0.00 0.00 74 1020.7
20260901090233 23 254 3.2 3.2 0.00 0.00 0.00 74 1020.8
20260901085729 22 4 3.2 3.2 0.00 0.00 0.00 74 1020.9
20260901085224 22 4 3.2 3.2 0.00 0.00 0.00 74 1020.6
20260901084720 22 4 3.2 3.2 0.00 0.00 0.00 74 1020.9
20260901084216 22 4 3.2 3.2 0.00 0.00 0.00 74 1020.5
20260901083711 22 352 3.2 3.2 0.00 0.00 0.00 74 1020.6
20260901083211 23 197 4.8 4.8 0.00 0.00 0.00 74 1020.8
20260901082709 23 197 4.8 4.8 0.00 0.00 0.00 74 1020.4
20260901082205 23 197 4.8 4.8 0.00 0.00 0.00 74 1020.6
20260901081701 23 197 4.8 4.8 0.00 0.00 0.00 74 1020.4
20260901081200 23 197 4.8 4.8 0.00 0.00 0.00 74 1020.5
20260901080655 23 182 4.8 4.8 0.00 0.00 0.00 74 1020.2
20260901080153 23 182 4.8 4.8 0.00 0.00 0.00 74 1020.2
20260901075648 25 186 0.0 4.8 0.00 0.00 0.00 75 1020.4
20260901075143 25 186 0.0 4.8 0.00 0.00 0.00 75 1020.4
20260901074642 25 186 0.0 4.8 0.00 0.00 0.00 75 1020.2
20260901074138 25 186 0.0 4.8 0.00 0.00 0.00 75 1020.3
20260901073634 25 186 0.0 4.8 0.00 0.00 0.00 75 1020.3
20260901073130 25 186 0.0 4.8 0.00 0.00 0.00 75 1020.2
20260901072625 25 186 0.0 4.8 0.00 0.00 0.00 75 1020.5
20260901072119 25 186 0.0 4.8 0.00 0.00 0.00 75 1020.3
20260901071614 25 186 0.0 4.8 0.00 0.00 0.00 75 1020.5
20260901071113 25 208 3.2 3.2 0.00 0.00 0.00 75 1020.6
20260901070607 25 208 3.2 3.2 0.00 0.00 0.00 75 1020.3
20260901065556 25 203 3.2 4.8 0.00 0.00 0.00 75 1020.2
20260901065051 25 165 1.6 1.6 0.00 0.00 0.00 75 1020.3
20260901064549 23 200 1.6 3.2 0.00 0.00 0.00 74 1020.2
20260901064045 23 249 0.0 0.0 0.00 0.00 0.00 74 1020.5
20260901063541 23 203 0.0 0.0 0.00 0.00 0.00 74 1020.5
20260901063037 23 203 0.0 0.0 0.00 0.00 0.00 74 1020.4
20260901062533 23 203 0.0 0.0 0.00 0.00 0.00 74 1020.6
20260901062028 24 195 0.0 0.0 0.00 0.00 0.00 74 1020.6
20260901061525 23 188 0.0 0.0 0.00 0.00 0.00 74 1020.7
20260901061024 23 188 0.0 0.0 0.00 0.00 0.00 74 1020.7
20260901060519 -17 0.0 0.0 0.00 0.00 0.00 1020.7
20260901060014 -17 0.0 0.0 0.00 0.00 0.00 1020.5
20260901055510 26 160 0.0 1.6 0.00 0.00 0.00 75 1020.7
20260901055007 26 160 0.0 1.6 0.00 0.00 0.00 75 1020.4
20260901054504 26 160 0.0 1.6 0.00 0.00 0.00 75 1020.8
20260901053959 26 160 0.0 1.6 0.00 0.00 0.00 75 1020.8
20260901053454 26 160 0.0 1.6 0.00 0.00 0.00 75 1020.5
20260901052950 26 160 0.0 1.6 0.00 0.00 0.00 75 1020.4
20260901052445 26 160 0.0 1.6 0.00 0.00 0.00 75 1020.5
20260901051944 26 160 0.0 1.6 0.00 0.00 0.00 75 1020.4
20260901051440 26 160 0.0 1.6 0.00 0.00 0.00 75 1020.5
20260901050939 26 160 0.0 1.6 0.00 0.00 0.00 75 1020.7
20260901050435 26 160 0.0 1.6 0.00 0.00 0.00 75 1020.5
20260901045935 26 160 0.0 1.6 0.00 0.00 0.00 75 1020.4
20260901045430 27 139 3.2 3.2 0.00 0.00 0.00 75 1020.4
20260901044925 27 139 3.2 3.2 0.00 0.00 0.00 75 1020.5
20260901044421 27 139 3.2 3.2 0.00 0.00 0.00 75 1020.5
20260901043917 27 139 3.2 3.2 0.00 0.00 0.00 75 1020.6
20260901043413 27 161 3.2 3.2 0.00 0.00 0.00 75 1020.4
20260901042912 26 220 3.2 3.2 0.00 0.00 0.00 75 1020.6
20260901042407 26 220 3.2 3.2 0.00 0.00 0.00 75 1020.7
20260901041902 26 220 3.2 3.2 0.00 0.00 0.00 75 1020.4
20260901041357 26 220 3.2 3.2 0.00 0.00 0.00 75 1020.5
20260901040857 -17 0.0 0.0 0.00 0.00 0.00 1020.5
20260901040356 28 152 3.2 4.8 0.00 0.00 0.00 75 1020.4
20260901035855 28 152 3.2 4.8 0.00 0.00 0.00 75 1020.4
20260901035354 28 152 3.2 4.8 0.00 0.00 0.00 75 1020.5
20260901034853 28 152 3.2 4.8 0.00 0.00 0.00 75 1020.5
20260901034348 28 152 3.2 4.8 0.00 0.00 0.00 75 1020.5
20260901033843 28 152 3.2 4.8 0.00 0.00 0.00 75 1020.4
20260901033342 28 152 3.2 4.8 0.00 0.00 0.00 75 1020.5
20260901032841 28 152 3.2 4.8 0.00 0.00 0.00 75 1020.5
20260901032340 28 152 3.2 4.8 0.00 0.00 0.00 75 1020.4
20260901031836 28 152 3.2 4.8 0.00 0.00 0.00 75 1020.4
20260901031332 28 152 3.2 4.8 0.00 0.00 0.00 75 1020.2
20260901030831 28 152 3.2 4.8 0.00 0.00 0.00 75 1020.1
20260901030327 28 142 4.8 4.8 0.00 0.00 0.00 75 1020.2
20260901025826 28 150 3.2 4.8 0.00 0.00 0.00 75 1020.2
20260901025321 -17 0.0 0.0 0.00 0.00 0.00 1020.2
20260901024816 -17 0.0 0.0 0.00 0.00 0.00 1020.3
20260901024315 -17 0.0 0.0 0.00 0.00 0.00 1020.0
20260901023813 -17 0.0 0.0 0.00 0.00 0.00 1019.9
20260901023308 -17 0.0 0.0 0.00 0.00 0.00 1020.0
20260901022804 -17 0.0 0.0 0.00 0.00 0.00 1020.0
20260901022259 -17 0.0 0.0 0.00 0.00 0.00 1019.9
20260901021754 -17 0.0 0.0 0.00 0.00 0.00 1019.7
20260901021250 30 152 4.8 11.3 0.00 0.00 0.00 76 1019.9
20260901020745 30 152 4.8 11.3 0.00 0.00 0.00 76 1019.6
20260901020240 30 152 4.8 11.3 0.00 0.00 0.00 76 1019.6
20260901015734 30 152 4.8 11.3 0.00 0.00 0.00 76 1019.4
20260901015231 30 152 4.8 11.3 0.00 0.00 0.00 76 1019.7
20260901014730 30 152 4.8 11.3 0.00 0.00 0.00 76 1019.6
20260901014226 30 152 4.8 11.3 0.00 0.00 0.00 76 1019.4
20260901013721 30 152 4.8 11.3 0.00 0.00 0.00 76 1019.4
20260901013217 30 152 4.8 11.3 0.00 0.00 0.00 76 1019.3
20260901012712 30 152 4.8 11.3 0.00 0.00 0.00 76 1019.2
20260901012207 30 152 4.8 11.3 0.00 0.00 0.00 76 1019.1
20260901011703 30 152 4.8 14.5 0.00 0.00 0.00 76 1018.9
20260901011202 31 199 3.2 11.3 0.00 0.00 0.00 76 1018.9
20260901010656 31 199 3.2 11.3 0.00 0.00 0.00 76 1018.7
20260901010151 31 199 3.2 11.3 0.00 0.00 0.00 76 1018.7
20260901005650 31 199 3.2 11.3 0.00 0.00 0.00 76 1018.6
20260901005146 31 147 6.4 8.0 0.00 0.00 0.00 76 1018.8
20260901004645 31 152 11.3 11.3 0.00 0.00 0.00 76 1018.6
20260901004139 -17 0.0 0.0 0.00 0.00 0.00 1018.6
20260901003635 -17 0.0 0.0 0.00 0.00 0.00 1018.6
20260901003133 -17 0.0 0.0 0.00 0.00 0.00 1018.6
20260901002628 -17 0.0 0.0 0.00 0.00 0.00 1018.3
20260901002122 -17 0.0 0.0 0.00 0.00 0.00 1018.4
20260901001617 -17 0.0 0.0 0.00 0.00 0.00 1018.5
20260901001112 -17 0.0 0.0 0.00 0.00 0.00 1018.4
20260901000607 -17 0.0 0.0 0.00 0.00 0.00 1018.7
20260901000058 35 156 3.2 3.2 0.00 0.00 0.00 77 1018.4
20260831235551 35 156 3.2 3.2 0.00 0.00 0.00 77 1018.4
20260831235047 35 156 3.2 3.2 0.00 0.00 0.00 77 1018.5
20260831234540 35 156 3.2 3.2 0.00 0.00 0.00 77 1018.8
20260831234036 35 156 3.2 3.2 0.00 0.00 0.00 77 1018.3
20260831233531 35 156 3.2 3.2 0.00 0.00 0.00 77 1018.5
20260831233027 35 156 3.2 3.2 0.00 0.00 0.00 77 1018.4
20260831232522 35 156 3.2 3.2 0.00 0.00 0.00 77 1018.5
20260831232018 35 156 3.2 3.2 0.00 0.00 0.00 77 1018.3
20260831231514 35 156 3.2 3.2 0.00 0.00 0.00 77 1018.3
20260831231009 35 156 3.2 3.2 0.00 0.00 0.00 77 1018.3
20260831230505 35 156 3.2 3.2 0.00 0.00 0.00 77 1018.4
20260831225959 35 125 3.2 4.8 0.00 0.00 0.00 77 1018.7
20260831225455 35 120 4.8 4.8 0.00 0.00 0.00 77 1018.5
20260831224954 35 99 3.2 6.4 0.00 0.00 0.00 77 1018.6
20260831224449 35 109 6.4 8.0 0.00 0.00 0.00 77 1018.5
20260831223944 35 132 6.4 6.4 0.00 0.00 0.00 77 1018.6
20260831223439 35 135 4.8 6.4 0.00 0.00 0.00 77 1018.6
20260831222936 35 142 3.2 9.7 0.00 0.00 0.00 77 1018.9
20260831222431 35 111 9.7 9.7 0.00 0.00 0.00 77 1018.7
20260831221926 35 105 1.6 1.6 0.00 0.00 0.00 77 1018.8
20260831221422 35 128 3.2 4.8 0.00 0.00 0.00 77 1018.8
20260831220917 35 140 0.0 3.2 0.00 0.00 0.00 77 1018.7
20260831220412 35 140 0.0 3.2 0.00 0.00 0.00 77 1018.6
20260831215907 35 90 4.8 4.8 0.00 0.00 0.00 77 1018.9
20260831215403 35 144 4.8 4.8 0.00 0.00 0.00 77 1018.8
20260831214859 35 144 4.8 4.8 0.00 0.00 0.00 77 1018.8
20260831214356 35 144 4.8 4.8 0.00 0.00 0.00 77 1018.8
20260831213852 35 126 8.0 8.0 0.00 0.00 0.00 77 1018.9
20260831213348 35 121 3.2 6.4 0.00 0.00 0.00 77 1019.1
20260831212843 35 114 6.4 6.4 0.00 0.00 0.00 77 1019.1
20260831212340 35 150 3.2 4.8 0.00 0.00 0.00 77 1018.9
20260831211838 35 110 8.0 9.7 0.00 0.00 0.00 77 1019.1
20260831211334 35 86 4.8 4.8 0.00 0.00 0.00 77 1018.9
20260831210833 35 84 3.2 6.4 0.00 0.00 0.00 77 1018.9
20260831210329 34 98 6.4 9.7 0.00 0.00 0.00 77 1019.1
20260831205829 35 90 4.8 14.5 0.00 0.00 0.00 77 1019.3
20260831205325 35 105 1.6 3.2 0.00 0.00 0.00 77 1019.2
20260831204820 35 197 4.8 8.0 0.00 0.00 0.00 77 1019.5
20260831204319 36 165 3.2 4.8 0.00 0.00 0.00 77 1019.4
20260831203818 35 17 0.0 4.8 0.00 0.00 0.00 77 1019.5
20260831203313 35 243 4.8 11.3 0.00 0.00 0.00 77 1019.7
20260831202811 35 243 8.0 14.5 0.00 0.00 0.00 77 1019.6
20260831202306 36 194 1.6 8.0 0.00 0.00 0.00 77 1019.6
20260831201800 35 216 0.0 4.8 0.00 0.00 0.00 77 1019.8
20260831201259 35 180 1.6 8.0 0.00 0.00 0.00 77 1020.0
20260831200755 35 129 3.2 4.8 0.00 0.00 0.00 77 1019.8
20260831200250 35 126 3.2 8.0 0.00 0.00 0.00 77 1020.0
20260831195745 35 183 4.8 12.9 0.00 0.00 0.00 77 1020.0
20260831195241 35 0 3.2 3.2 0.00 0.00 0.00 77 1020.1
20260831194736 35 297 3.2 8.0 0.00 0.00 0.00 77 1020.2
20260831194232 35 255 4.8 6.4 0.00 0.00 0.00 77 1020.3
20260831193725 35 246 1.6 6.4 0.00 0.00 0.00 77 1020.3
20260831193221 33 246 4.8 8.0 0.00 0.00 0.00 77 1020.1
20260831192716 35 267 11.3 16.1 0.00 0.00 0.00 77 1020.4
20260831192211 34 240 8.0 16.1 0.00 0.00 0.00 77 1020.4
20260831191707 35 245 3.2 11.3 0.00 0.00 0.00 77 1020.4
20260831191203 34 274 8.0 9.7 0.00 0.00 0.00 77 1020.5
20260831190657 34 206 4.8 8.0 0.00 0.00 0.00 77 1020.7